TimePDT,TemperatureF,Dew PointF,Humidity,Sea Level PressureIn,VisibilityMPH,Wind Direction,Wind SpeedMPH,Gust SpeedMPH,PrecipitationIn,Events,Conditions,WindDirDegrees,DateUTC
12:56 AM,43.0,28.9,58,29.90,10.0,West,4.6,-,N/A,,Clear,280,2013-04-12 07:56:00
1:56 AM,37.9,28.0,68,29.89,10.0,ENE,6.9,-,N/A,,Clear,60,2013-04-12 08:56:00
2:56 AM,39.0,26.1,60,29.90,10.0,Calm,Calm,-,N/A,,Clear,0,2013-04-12 09:56:00
3:56 AM,37.0,28.9,73,29.90,10.0,SSW,3.5,-,N/A,,Clear,210,2013-04-12 10:56:00
4:56 AM,37.0,27.0,67,29.90,10.0,West,4.6,-,N/A,,Clear,260,2013-04-12 11:56:00
5:56 AM,34.0,27.0,75,29.91,10.0,Calm,Calm,-,N/A,,Clear,0,2013-04-12 12:56:00
6:17 AM,33.8,26.6,75,30.00,10.0,Calm,Calm,-,N/A,,Partly Cloudy,0,2013-04-12 13:17:00
6:56 AM,30.9,27.0,85,29.93,10.0,Calm,Calm,-,N/A,,Partly Cloudy,0,2013-04-12 13:56:00
7:56 AM,39.9,28.9,65,29.96,10.0,Calm,Calm,-,N/A,,Partly Cloudy,0,2013-04-12 14:56:00
8:56 AM,46.9,27.0,46,29.96,10.0,South,4.6,-,N/A,,Scattered Clouds,190,2013-04-12 15:56:00
9:56 AM,51.1,23.0,33,29.96,10.0,Calm,Calm,-,N/A,,Mostly Cloudy,0,2013-04-12 16:56:00
10:56 AM,55.9,24.1,29,29.95,10.0,WSW,4.6,-,N/A,,Mostly Cloudy,250,2013-04-12 17:56:00
11:56 AM,59.0,21.9,24,29.93,10.0,West,4.6,-,N/A,,Scattered Clouds,260,2013-04-12 18:56:00
12:56 PM,62.1,19.9,20,29.90,10.0,WSW,5.8,-,N/A,,Scattered Clouds,240,2013-04-12 19:56:00
1:56 PM,64.9,18.0,16,29.87,10.0,Variable,3.5,-,N/A,,Scattered Clouds,0,2013-04-12 20:56:00
2:56 PM,64.9,15.1,15,29.85,10.0,Calm,Calm,-,N/A,,Scattered Clouds,0,2013-04-12 21:56:00
3:56 PM,69.1,16.0,13,29.82,10.0,ENE,4.6,-,N/A,,Mostly Cloudy,70,2013-04-12 22:56:00
4:56 PM,69.1,16.0,13,29.80,10.0,Calm,Calm,-,N/A,,Mostly Cloudy,0,2013-04-12 23:56:00
5:56 PM,69.1,14.0,12,29.78,10.0,North,3.5,-,N/A,,Mostly Cloudy,10,2013-04-13 00:56:00
6:56 PM,66.9,12.0,12,29.77,10.0,Calm,Calm,-,N/A,,Mostly Cloudy,0,2013-04-13 01:56:00
7:56 PM,61.0,18.0,19,29.77,10.0,Calm,Calm,-,N/A,,Scattered Clouds,0,2013-04-13 02:56:00
8:56 PM,57.0,21.0,25,29.78,10.0,South,3.5,-,N/A,,Clear,190,2013-04-13 03:56:00
9:56 PM,55.0,24.1,30,29.79,10.0,West,3.5,-,N/A,,Clear,270,2013-04-13 04:56:00
10:56 PM,51.1,28.0,41,29.79,10.0,South,5.8,-,N/A,,Clear,180,2013-04-13 05:56:00
11:56 PM,48.9,28.9,46,29.80,10.0,South,6.9,-,N/A,,Clear,180,2013-04-13 06:56:00